Date,TemperatureHighF,TemperatureAvgF,TemperatureLowF,DewpointHighF,DewpointAvgF,DewpointLowF,HumidityHigh,HumidityAvg,HumidityLow,PressureMaxIn,PressureMinIn,WindSpeedMaxMPH,WindSpeedAvgMPH,GustSpeedMaxMPH,PrecipitationSumIn
2013-1-1,19.0,11.2,3.0,4.0,0.7,-6.0,73,62,50,30.14,29.96,14,4,28,0.00
2013-1-2,20.0,11.6,6.0,5.0,0.0,-4.0,73,60,39,30.25,30.10,15,4,22,0.00
2013-1-3,25.0,12.2,4.0,4.0,-2.3,-7.0,71,52,38,30.28,30.19,18,10,27,0.00
2013-1-4,27.0,15.0,5.0,10.0,-0.6,-8.0,66,49,34,30.26,30.08,17,4,23,0.00
2013-1-5,31.0,19.4,3.0,8.0,0.4,-8.0,65,43,31,30.31,30.10,17,6,26,0.00
2013-1-6,43.0,30.7,20.0,10.0,2.5,-3.0,43,30,21,30.30,29.98,18,9,25,0.00
2013-1-7,39.0,29.2,22.0,11.0,2.5,-1.0,45,32,23,30.06,29.85,14,8,24,0.00
2013-1-8,34.0,27.7,24.0,19.0,15.0,6.0,68,59,40,30.33,29.87,23,10,33,0.00
2013-1-9,47.0,34.0,24.0,17.0,13.7,9.0,68,45,25,30.35,30.05,18,9,27,0.00
2013-1-10,45.0,36.6,29.0,18.0,10.2,6.0,55,34,23,30.04,29.49,21,9,33,0.00
2013-1-11,31.0,18.2,7.0,19.0,5.9,-5.0,82,58,48,29.69,29.31,23,8,63,0.00
2013-1-12,8.0,0.2,-6.0,-2.0,-6.9,-12.0,79,71,60,29.84,29.68,17,2,33,0.00
2013-1-13,2.0,-4.5,-11.0,-4.0,-10.5,-17.0,83,74,61,29.93,29.81,6,2,14,0.00
2013-1-14,8.0,-4.7,-19.0,-7.0,-15.2,-25.0,74,60,45,30.00,29.89,16,3,26,0.00
2013-1-15,15.0,6.9,-3.0,6.0,-5.1,-16.0,67,57,52,30.22,29.98,23,11,37,0.00
2013-1-16,35.0,23.2,14.0,16.0,10.4,5.0,69,58,44,30.41,30.20,21,12,31,0.00
2013-1-17,44.0,27.6,13.0,15.0,9.2,3.0,69,47,26,30.48,30.29,17,10,27,0.00
2013-1-18,42.0,31.2,22.0,10.0,6.2,2.0,42,34,24,30.30,30.17,20,11,33,0.00
2013-1-19,41.0,31.6,25.0,9.0,6.0,3.0,42,34,24,30.35,30.17,19,11,35,0.00
2013-1-20,31.0,26.3,21.0,5.0,3.3,1.0,43,37,31,30.31,30.21,15,10,26,0.00
2013-1-21,40.0,30.8,23.0,12.0,7.3,3.0,47,37,29,30.25,30.17,24,11,37,0.00
2013-1-22,48.0,37.5,29.0,5.0,1.6,-5.0,33,22,15,30.28,30.15,20,8,40,0.00
2013-1-23,51.0,40.9,34.0,10.0,2.9,-5.0,29,20,15,30.30,30.22,19,11,31,0.00
2013-1-24,47.0,37.1,29.0,29.0,16.1,4.0,81,45,24,30.26,30.03,25,8,40,0.00
2013-1-25,43.0,36.0,30.0,27.0,24.8,23.0,77,64,49,30.25,30.11,19,9,33,0.00
2013-1-26,43.0,37.2,32.0,28.0,25.4,23.0,77,63,46,30.11,29.81,14,5,26,0.00
2013-1-27,44.0,35.9,28.0,28.0,23.9,18.0,82,63,39,29.84,29.74,19,6,32,0.00
2013-1-28,34.0,25.9,14.0,27.0,16.3,2.0,92,67,54,29.76,29.66,15,6,23,0.01
2013-1-29,20.0,11.9,4.0,3.0,-0.6,-5.0,68,57,42,29.88,29.66,12,4,23,0.01
2013-1-30,26.0,17.7,4.0,19.0,9.4,-4.0,80,70,62,29.88,29.78,17,7,33,0.00
2013-1-31,32.0,27.3,24.0,18.0,16.2,14.0,73,63,54,30.17,29.99,15,6,35,0.01